Tracking 18793 objects as of 24-September-2017
HD Live streaming from Space Station
objects crossing your sky now

IRIDIUM 113

Track IRIDIUM 113 now!
10-day predictions
IRIDIUM 113 is classified as:


NORAD ID: 42803
Int'l Code: 2017-039A
Perigee: 616.1 km
Apogee: 631.4 km
Inclination: 85.6 °
Period: 97.0 minutes
Semi major axis: 6994 km
RCS: Unknown
Launch date: June 25, 2017
Source: United States (US)
Launch site: AIR FORCE WESTERN TEST RANGE (AFWTR)
aabbcc
Your satellite tracking list
Your tracking list is empty





NASA's NSSDC Master Catalog

Two Line Element Set (TLE):
1 42803U 17039A   17266.76673965 +.00000175 +00000-0 +17667-4 0  9992
2 42803 085.6115 237.1877 0010978 287.7394 072.2629 14.84039411013338
Source of the keplerian elements: AFSPC